Year,Month,Day,Hour,Minute,Value (Times are PST for windspeed in km/hr)
2009,05,04,00,00,0.00
2009,05,04,00,01,0.00
2009,05,04,00,02,0.00
2009,05,04,00,03,0.00
2009,05,04,00,04,0.00
2009,05,04,00,05,0.00
2009,05,04,00,06,0.00
2009,05,04,00,07,0.00
2009,05,04,00,08,0.00
2009,05,04,00,09,0.00
2009,05,04,00,10,0.00
2009,05,04,00,11,0.00
2009,05,04,00,12,0.00
2009,05,04,00,13,0.00
2009,05,04,00,14,0.00
2009,05,04,00,15,0.00
2009,05,04,00,16,0.00
2009,05,04,00,17,0.00
2009,05,04,00,18,0.00
2009,05,04,00,19,0.00
2009,05,04,00,20,0.00
2009,05,04,00,21,0.00
2009,05,04,00,22,0.00
2009,05,04,00,23,0.00
2009,05,04,00,24,0.00
2009,05,04,00,25,0.00
2009,05,04,00,26,0.00
2009,05,04,00,27,0.00
2009,05,04,00,28,0.00
2009,05,04,00,29,0.00
2009,05,04,00,30,0.00
2009,05,04,00,31,0.00
2009,05,04,00,32,0.00
2009,05,04,00,33,0.00
2009,05,04,00,34,0.00
2009,05,04,00,35,0.00
2009,05,04,00,36,0.00
2009,05,04,00,37,0.00
2009,05,04,00,38,0.00
2009,05,04,00,39,0.00
2009,05,04,00,40,0.00
2009,05,04,00,41,0.00
2009,05,04,00,42,0.00
2009,05,04,00,43,0.00
2009,05,04,00,44,0.00
2009,05,04,00,45,0.00
2009,05,04,00,46,0.00
2009,05,04,00,47,0.00
2009,05,04,00,48,0.00
2009,05,04,00,49,0.00
2009,05,04,00,50,0.00
2009,05,04,00,51,0.00
2009,05,04,00,52,0.00
2009,05,04,00,53,0.00
2009,05,04,00,54,0.00
2009,05,04,00,55,0.00
2009,05,04,00,56,0.00
2009,05,04,00,57,0.00
2009,05,04,00,58,0.00
2009,05,04,00,59,0.00
2009,05,04,01,00,0.00
2009,05,04,01,01,0.00
2009,05,04,01,02,0.00
2009,05,04,01,03,0.00
2009,05,04,01,04,0.00
2009,05,04,01,05,0.00
2009,05,04,01,06,0.00
2009,05,04,01,07,0.00
2009,05,04,01,08,0.00
2009,05,04,01,09,0.00
2009,05,04,01,10,0.00
2009,05,04,01,11,0.00
2009,05,04,01,12,0.00
2009,05,04,01,13,0.00
2009,05,04,01,14,0.00
2009,05,04,01,15,0.00
2009,05,04,01,16,0.00
2009,05,04,01,17,0.00
2009,05,04,01,18,0.00
2009,05,04,01,19,0.00
2009,05,04,01,20,0.00
2009,05,04,01,21,0.00
2009,05,04,01,22,0.00
2009,05,04,01,23,0.30
2009,05,04,01,24,2.60
2009,05,04,01,25,0.10
2009,05,04,01,26,0.20
2009,05,04,01,27,0.30
2009,05,04,01,28,0.70
2009,05,04,01,29,1.40
2009,05,04,01,30,0.20
2009,05,04,01,31,0.00
2009,05,04,01,32,0.10
2009,05,04,01,33,0.00
2009,05,04,01,34,0.00
2009,05,04,01,35,0.00
2009,05,04,01,36,0.00
2009,05,04,01,37,0.00
2009,05,04,01,38,0.00
2009,05,04,01,39,0.00
2009,05,04,01,40,0.00
2009,05,04,01,41,0.00
2009,05,04,01,42,0.00
2009,05,04,01,43,0.00
2009,05,04,01,44,0.00
2009,05,04,01,45,0.10
2009,05,04,01,46,0.00
2009,05,04,01,47,0.00
2009,05,04,01,48,0.00
2009,05,04,01,49,0.00
2009,05,04,01,50,0.00
2009,05,04,01,51,0.00
2009,05,04,01,52,0.00
2009,05,04,01,53,0.00
2009,05,04,01,54,0.10
2009,05,04,01,55,0.00
2009,05,04,01,56,0.00
2009,05,04,01,57,1.30
2009,05,04,01,58,0.00
2009,05,04,01,59,0.00
2009,05,04,02,00,0.00
2009,05,04,02,01,0.00
2009,05,04,02,02,0.00
2009,05,04,02,03,0.00
2009,05,04,02,04,0.00
2009,05,04,02,05,0.00
2009,05,04,02,06,0.00
2009,05,04,02,07,0.00
2009,05,04,02,08,0.00
2009,05,04,02,09,0.00
2009,05,04,02,10,0.00
2009,05,04,02,11,0.00
2009,05,04,02,12,0.00
2009,05,04,02,13,0.30
2009,05,04,02,14,0.00
2009,05,04,02,15,0.90
2009,05,04,02,16,0.00
2009,05,04,02,17,0.20
2009,05,04,02,18,0.00
2009,05,04,02,19,0.00
2009,05,04,02,20,0.00
2009,05,04,02,21,0.00
2009,05,04,02,22,0.00
2009,05,04,02,23,0.00
2009,05,04,02,24,0.00
2009,05,04,02,25,0.00
2009,05,04,02,26,0.00
2009,05,04,02,27,0.00
2009,05,04,02,28,0.00
2009,05,04,02,29,0.00
2009,05,04,02,30,0.00
2009,05,04,02,31,0.00
2009,05,04,02,32,0.00
2009,05,04,02,33,0.00
2009,05,04,02,34,0.00
2009,05,04,02,35,0.00
2009,05,04,02,36,0.00
2009,05,04,02,37,0.20
2009,05,04,02,38,0.20
2009,05,04,02,39,0.10
2009,05,04,02,40,0.40
2009,05,04,02,41,0.00
2009,05,04,02,42,0.40
2009,05,04,02,43,0.10
2009,05,04,02,44,0.30
2009,05,04,02,45,2.60
2009,05,04,02,46,0.40
2009,05,04,02,47,0.60
2009,05,04,02,48,1.70
2009,05,04,02,49,0.10
2009,05,04,02,50,3.10
2009,05,04,02,51,1.50
2009,05,04,02,52,2.40
2009,05,04,02,53,1.40
2009,05,04,02,54,1.90
2009,05,04,02,55,2.90
2009,05,04,02,56,0.90
2009,05,04,02,57,0.70
2009,05,04,02,58,0.20
2009,05,04,02,59,0.00
2009,05,04,03,00,0.00
2009,05,04,03,01,0.00
2009,05,04,03,02,0.00
2009,05,04,03,03,0.00
2009,05,04,03,04,0.00
2009,05,04,03,05,0.10
2009,05,04,03,06,0.10
2009,05,04,03,07,0.00
2009,05,04,03,08,0.20
2009,05,04,03,09,0.10
2009,05,04,03,10,2.00
2009,05,04,03,11,0.10
2009,05,04,03,12,0.00
2009,05,04,03,13,0.10
2009,05,04,03,14,2.60
2009,05,04,03,15,0.70
2009,05,04,03,16,2.70
2009,05,04,03,17,2.20
2009,05,04,03,18,2.30
2009,05,04,03,19,1.30
2009,05,04,03,20,0.20
2009,05,04,03,21,0.60
2009,05,04,03,22,1.60
2009,05,04,03,23,1.50
2009,05,04,03,24,1.00
2009,05,04,03,25,4.70
2009,05,04,03,26,2.40
2009,05,04,03,27,6.80
2009,05,04,03,28,4.30
2009,05,04,03,29,0.10
2009,05,04,03,30,4.20
2009,05,04,03,31,2.90
2009,05,04,03,32,2.50
2009,05,04,03,33,8.30
2009,05,04,03,34,4.30
2009,05,04,03,35,2.30
2009,05,04,03,36,3.60
2009,05,04,03,37,5.00
2009,05,04,03,38,2.10
2009,05,04,03,39,4.60
2009,05,04,03,40,5.80
2009,05,04,03,41,5.00
2009,05,04,03,42,3.90
2009,05,04,03,43,4.30
2009,05,04,03,44,6.40
2009,05,04,03,45,4.40
2009,05,04,03,46,1.00
2009,05,04,03,47,6.60
2009,05,04,03,48,2.60
2009,05,04,03,49,5.90
2009,05,04,03,50,3.40
2009,05,04,03,51,6.00
2009,05,04,03,52,3.70
2009,05,04,03,53,4.00
2009,05,04,03,54,2.90
2009,05,04,03,55,3.10
2009,05,04,03,56,2.70
2009,05,04,03,57,0.00
2009,05,04,03,58,6.00
2009,05,04,03,59,1.50
2009,05,04,04,00,2.40
2009,05,04,04,01,5.00
2009,05,04,04,02,5.30
2009,05,04,04,03,6.00
2009,05,04,04,04,0.10
2009,05,04,04,05,0.50
2009,05,04,04,06,2.40
2009,05,04,04,07,3.00
2009,05,04,04,08,2.40
2009,05,04,04,09,0.10
2009,05,04,04,10,0.00
2009,05,04,04,11,1.20
2009,05,04,04,12,3.70
2009,05,04,04,13,5.40
2009,05,04,04,14,2.90
2009,05,04,04,15,0.00
2009,05,04,04,16,0.00
2009,05,04,04,17,0.00
2009,05,04,04,18,0.00
2009,05,04,04,19,0.10
2009,05,04,04,20,2.10
2009,05,04,04,21,4.30
2009,05,04,04,22,3.90
2009,05,04,04,23,0.10
2009,05,04,04,24,0.90
2009,05,04,04,25,2.80
2009,05,04,04,26,3.30
2009,05,04,04,27,1.70
2009,05,04,04,28,0.60
2009,05,04,04,29,0.70
2009,05,04,04,30,0.10
2009,05,04,04,31,1.00
2009,05,04,04,32,4.40
2009,05,04,04,33,2.40
2009,05,04,04,34,5.90
2009,05,04,04,35,4.60
2009,05,04,04,36,6.40
2009,05,04,04,37,2.10
2009,05,04,04,38,0.10
2009,05,04,04,39,3.60
2009,05,04,04,40,5.30
2009,05,04,04,41,1.40
2009,05,04,04,42,2.80
2009,05,04,04,43,1.30
2009,05,04,04,44,0.00
2009,05,04,04,45,2.80
2009,05,04,04,46,1.00
2009,05,04,04,47,3.20
2009,05,04,04,48,8.30
2009,05,04,04,49,7.40
2009,05,04,04,50,4.00
2009,05,04,04,51,5.90
2009,05,04,04,52,5.20
2009,05,04,04,53,5.70
2009,05,04,04,54,8.30
2009,05,04,04,55,7.90
2009,05,04,04,56,5.10
2009,05,04,04,57,6.00
2009,05,04,04,58,7.10
2009,05,04,04,59,7.50
2009,05,04,05,00,12.90
2009,05,04,05,01,5.10
2009,05,04,05,02,3.50
2009,05,04,05,03,6.40
2009,05,04,05,04,2.20
2009,05,04,05,05,9.10
2009,05,04,05,06,4.10
2009,05,04,05,07,7.90
2009,05,04,05,08,6.00
2009,05,04,05,09,8.00
2009,05,04,05,10,8.80
2009,05,04,05,11,6.20
2009,05,04,05,12,8.50
2009,05,04,05,13,6.00
2009,05,04,05,14,6.50
2009,05,04,05,15,5.70
2009,05,04,05,16,6.40
2009,05,04,05,17,10.40
2009,05,04,05,18,8.50
2009,05,04,05,19,5.80
2009,05,04,05,20,9.20
2009,05,04,05,21,9.30
2009,05,04,05,22,3.30
2009,05,04,05,23,5.60
2009,05,04,05,24,6.60
2009,05,04,05,25,3.80
2009,05,04,05,26,4.30
2009,05,04,05,27,6.50
2009,05,04,05,28,8.20
2009,05,04,05,29,4.60
2009,05,04,05,30,3.80
2009,05,04,05,31,6.70
2009,05,04,05,32,4.40
2009,05,04,05,33,4.40
2009,05,04,05,34,7.30
2009,05,04,05,35,10.10
2009,05,04,05,36,4.20
2009,05,04,05,37,6.40
2009,05,04,05,38,5.40
2009,05,04,05,39,9.90
2009,05,04,05,40,3.80
2009,05,04,05,41,7.20
2009,05,04,05,42,5.10
2009,05,04,05,43,2.50
2009,05,04,05,44,8.00
2009,05,04,05,45,7.90
2009,05,04,05,46,5.10
2009,05,04,05,47,2.90
2009,05,04,05,48,11.00
2009,05,04,05,49,4.50
2009,05,04,05,50,10.30
2009,05,04,05,51,9.50
2009,05,04,05,52,11.80
2009,05,04,05,53,7.00
2009,05,04,05,54,6.50
2009,05,04,05,55,5.50
2009,05,04,05,56,8.80
2009,05,04,05,57,4.50
2009,05,04,05,58,3.50
2009,05,04,05,59,8.00
2009,05,04,06,00,3.00
2009,05,04,06,01,3.70
2009,05,04,06,02,4.00
2009,05,04,06,03,4.10
2009,05,04,06,04,6.70
2009,05,04,06,05,5.50
2009,05,04,06,06,2.90
2009,05,04,06,07,3.10
2009,05,04,06,08,0.30
2009,05,04,06,09,1.00
2009,05,04,06,10,4.30
2009,05,04,06,11,5.20
2009,05,04,06,12,4.50
2009,05,04,06,13,8.70
2009,05,04,06,14,5.40
2009,05,04,06,15,7.80
2009,05,04,06,16,5.40
2009,05,04,06,17,2.00
2009,05,04,06,18,8.20
2009,05,04,06,19,5.40
2009,05,04,06,20,4.60
2009,05,04,06,21,3.70
2009,05,04,06,22,3.00
2009,05,04,06,23,5.70
2009,05,04,06,24,5.70
2009,05,04,06,25,5.70
2009,05,04,06,26,6.50
2009,05,04,06,27,6.30
2009,05,04,06,28,2.60
2009,05,04,06,29,3.80
2009,05,04,06,30,7.00
2009,05,04,06,31,5.20
2009,05,04,06,32,4.80
2009,05,04,06,33,6.10
2009,05,04,06,34,3.90
2009,05,04,06,35,7.00
2009,05,04,06,36,7.10
2009,05,04,06,37,6.40
2009,05,04,06,38,4.90
2009,05,04,06,39,4.70
2009,05,04,06,40,4.50
2009,05,04,06,41,8.60
2009,05,04,06,42,10.90
2009,05,04,06,43,7.10
2009,05,04,06,44,4.90
2009,05,04,06,45,4.00
2009,05,04,06,46,11.60
2009,05,04,06,47,7.90
2009,05,04,06,48,8.00
2009,05,04,06,49,10.20
2009,05,04,06,50,7.30
2009,05,04,06,51,12.70
2009,05,04,06,52,13.30
2009,05,04,06,53,14.40
2009,05,04,06,54,6.60
2009,05,04,06,55,9.30
2009,05,04,06,56,10.10
2009,05,04,06,57,6.80
2009,05,04,06,58,5.80
2009,05,04,06,59,8.50
2009,05,04,07,00,9.10
2009,05,04,07,01,7.00
2009,05,04,07,02,9.20
2009,05,04,07,03,9.40
2009,05,04,07,04,10.70
2009,05,04,07,05,8.80
2009,05,04,07,06,7.40
2009,05,04,07,07,9.80
2009,05,04,07,08,6.50
2009,05,04,07,09,6.50
2009,05,04,07,10,6.30
2009,05,04,07,11,10.40
2009,05,04,07,12,7.10
2009,05,04,07,13,6.10
2009,05,04,07,14,10.80
2009,05,04,07,15,9.30
2009,05,04,07,16,10.50
2009,05,04,07,17,7.60
2009,05,04,07,18,10.70
2009,05,04,07,19,8.50
2009,05,04,07,20,7.90
2009,05,04,07,21,7.50
2009,05,04,07,22,8.20
2009,05,04,07,23,9.70
2009,05,04,07,24,11.60
2009,05,04,07,25,10.20
2009,05,04,07,26,11.30
2009,05,04,07,27,11.30
2009,05,04,07,28,15.80
2009,05,04,07,29,8.70
2009,05,04,07,30,13.70
2009,05,04,07,31,12.20
2009,05,04,07,32,14.50
2009,05,04,07,33,18.40
2009,05,04,07,34,17.10
2009,05,04,07,35,14.00
2009,05,04,07,36,10.50
2009,05,04,07,37,19.20
2009,05,04,07,38,16.80
2009,05,04,07,39,11.60
2009,05,04,07,40,12.30
2009,05,04,07,41,14.90
2009,05,04,07,42,18.20
2009,05,04,07,43,12.10
2009,05,04,07,44,14.90
2009,05,04,07,45,12.70
2009,05,04,07,46,7.20
2009,05,04,07,47,10.20
2009,05,04,07,48,17.00
2009,05,04,07,49,14.50
2009,05,04,07,50,18.40
2009,05,04,07,51,19.00
2009,05,04,07,52,11.20
2009,05,04,07,53,10.80
2009,05,04,07,54,11.10
2009,05,04,07,55,8.70
2009,05,04,07,56,11.80
2009,05,04,07,57,15.80
2009,05,04,07,58,8.00
2009,05,04,07,59,11.20
2009,05,04,08,00,10.90
2009,05,04,08,01,15.10
2009,05,04,08,02,12.40
2009,05,04,08,03,13.60
2009,05,04,08,04,13.70
2009,05,04,08,05,10.40
2009,05,04,08,06,15.60
2009,05,04,08,07,9.70
2009,05,04,08,08,13.90
2009,05,04,08,09,12.30
2009,05,04,08,10,12.40
2009,05,04,08,11,14.60
2009,05,04,08,12,11.30
2009,05,04,08,13,16.60
2009,05,04,08,14,10.30
2009,05,04,08,15,9.00
2009,05,04,08,16,13.50
2009,05,04,08,17,12.70
2009,05,04,08,18,18.60
2009,05,04,08,19,14.10
2009,05,04,08,20,12.60
2009,05,04,08,21,8.90
2009,05,04,08,22,8.40
2009,05,04,08,23,16.70
2009,05,04,08,24,17.20
2009,05,04,08,25,7.30
2009,05,04,08,26,12.30
2009,05,04,08,27,8.80
2009,05,04,08,28,15.70
2009,05,04,08,29,13.50
2009,05,04,08,30,14.70
2009,05,04,08,31,10.30
2009,05,04,08,32,15.30
2009,05,04,08,33,13.80
2009,05,04,08,34,17.40
2009,05,04,08,35,19.60
2009,05,04,08,36,16.00
2009,05,04,08,37,18.80
2009,05,04,08,38,14.30
2009,05,04,08,39,14.10
2009,05,04,08,40,12.60
2009,05,04,08,41,8.90
2009,05,04,08,42,13.90
2009,05,04,08,43,13.90
2009,05,04,08,44,19.80
2009,05,04,08,45,9.70
2009,05,04,08,46,8.10
2009,05,04,08,47,11.60
2009,05,04,08,48,16.90
2009,05,04,08,49,15.30
2009,05,04,08,50,12.90
2009,05,04,08,51,15.90
2009,05,04,08,52,10.50
2009,05,04,08,53,7.40
2009,05,04,08,54,13.50
2009,05,04,08,55,7.00
2009,05,04,08,56,12.40
2009,05,04,08,57,13.90
2009,05,04,08,58,11.20
2009,05,04,08,59,10.90
2009,05,04,09,00,8.60
2009,05,04,09,01,9.20
2009,05,04,09,02,15.40
2009,05,04,09,03,9.70
2009,05,04,09,04,11.50
2009,05,04,09,05,15.40
2009,05,04,09,06,15.20
2009,05,04,09,07,12.50
2009,05,04,09,08,14.60
2009,05,04,09,09,10.90
2009,05,04,09,10,11.90
2009,05,04,09,11,13.60
2009,05,04,09,12,9.50
2009,05,04,09,13,11.50
2009,05,04,09,14,12.30
2009,05,04,09,15,11.80
2009,05,04,09,16,13.40
2009,05,04,09,17,13.90
2009,05,04,09,18,10.60
2009,05,04,09,19,11.40
2009,05,04,09,20,13.50
2009,05,04,09,21,13.40
2009,05,04,09,22,13.20
2009,05,04,09,23,12.30
2009,05,04,09,24,11.10
2009,05,04,09,25,17.80
2009,05,04,09,26,6.20
2009,05,04,09,27,7.30
2009,05,04,09,28,7.00
2009,05,04,09,29,7.50
2009,05,04,09,30,14.30
2009,05,04,09,31,8.70
2009,05,04,09,32,8.00
2009,05,04,09,33,13.90
2009,05,04,09,34,16.90
2009,05,04,09,35,15.40
2009,05,04,09,36,11.50
2009,05,04,09,37,12.40
2009,05,04,09,38,9.20
2009,05,04,09,39,11.40
2009,05,04,09,40,11.20
2009,05,04,09,41,12.80
2009,05,04,09,42,12.50
2009,05,04,09,43,12.30
2009,05,04,09,44,11.40
2009,05,04,09,45,6.00
2009,05,04,09,46,10.10
2009,05,04,09,47,12.20
2009,05,04,09,48,14.10
2009,05,04,09,49,13.20
2009,05,04,09,50,6.50
2009,05,04,09,51,14.70
2009,05,04,09,52,11.00
2009,05,04,09,53,10.10
2009,05,04,09,54,14.40
2009,05,04,09,55,8.60
2009,05,04,09,56,11.50
2009,05,04,09,57,9.40
2009,05,04,09,58,11.70
2009,05,04,09,59,6.10
2009,05,04,10,00,15.20
2009,05,04,10,01,11.60
2009,05,04,10,02,12.30
2009,05,04,10,03,15.00
2009,05,04,10,04,12.20
2009,05,04,10,05,12.50
2009,05,04,10,06,9.90
2009,05,04,10,07,11.00
2009,05,04,10,08,8.10
2009,05,04,10,09,9.00
2009,05,04,10,10,12.50
2009,05,04,10,11,14.80
2009,05,04,10,12,10.50
2009,05,04,10,13,13.20
2009,05,04,10,14,9.10
2009,05,04,10,15,5.20
2009,05,04,10,16,14.40
2009,05,04,10,17,7.10
2009,05,04,10,18,8.00
2009,05,04,10,19,13.30
2009,05,04,10,20,14.70
2009,05,04,10,21,18.50
2009,05,04,10,22,17.50
2009,05,04,10,23,18.60
2009,05,04,10,24,11.80
2009,05,04,10,25,15.40
2009,05,04,10,26,11.40
2009,05,04,10,27,18.10
2009,05,04,10,28,12.20
2009,05,04,10,29,8.70
2009,05,04,10,30,12.60
2009,05,04,10,31,10.30
2009,05,04,10,32,6.40
2009,05,04,10,33,9.80
2009,05,04,10,34,13.90
2009,05,04,10,35,7.50
2009,05,04,10,36,9.90
2009,05,04,10,37,9.40
2009,05,04,10,38,12.70
2009,05,04,10,39,7.00
2009,05,04,10,40,10.90
2009,05,04,10,41,10.60
2009,05,04,10,42,14.90
2009,05,04,10,43,15.30
2009,05,04,10,44,12.00
2009,05,04,10,45,9.80
2009,05,04,10,46,6.40
2009,05,04,10,47,15.20
2009,05,04,10,48,11.30
2009,05,04,10,49,16.10
2009,05,04,10,50,12.60
2009,05,04,10,51,12.60
2009,05,04,10,52,11.60
2009,05,04,10,53,12.40
2009,05,04,10,54,13.70
2009,05,04,10,55,11.40
2009,05,04,10,56,15.30
2009,05,04,10,57,12.00
2009,05,04,10,58,16.60
2009,05,04,10,59,13.80
2009,05,04,11,00,9.70
2009,05,04,11,01,11.90
2009,05,04,11,02,11.60
2009,05,04,11,03,11.00
2009,05,04,11,04,13.60
2009,05,04,11,05,8.00
2009,05,04,11,06,14.20
2009,05,04,11,07,12.40
2009,05,04,11,08,15.00
2009,05,04,11,09,13.80
2009,05,04,11,10,12.40
2009,05,04,11,11,14.50
2009,05,04,11,12,13.50
2009,05,04,11,13,9.50
2009,05,04,11,14,19.60
2009,05,04,11,15,18.30
2009,05,04,11,16,17.60
2009,05,04,11,17,5.90
2009,05,04,11,18,9.60
2009,05,04,11,19,8.30
2009,05,04,11,20,12.30
2009,05,04,11,21,15.90
2009,05,04,11,22,16.40
2009,05,04,11,23,19.40
2009,05,04,11,24,19.70
2009,05,04,11,25,16.30
2009,05,04,11,26,17.80
2009,05,04,11,27,12.30
2009,05,04,11,28,14.30
2009,05,04,11,29,13.40
2009,05,04,11,30,12.50
2009,05,04,11,31,8.60
2009,05,04,11,32,8.70
2009,05,04,11,33,13.60
2009,05,04,11,34,13.60
2009,05,04,11,35,17.70
2009,05,04,11,36,11.30
2009,05,04,11,37,14.70
2009,05,04,11,38,14.00
2009,05,04,11,39,15.60
2009,05,04,11,40,12.00
2009,05,04,11,41,12.50
2009,05,04,11,42,16.40
2009,05,04,11,43,19.40
2009,05,04,11,44,12.00
2009,05,04,11,45,17.90
2009,05,04,11,46,14.70
2009,05,04,11,47,16.80
2009,05,04,11,48,14.80
2009,05,04,11,49,9.80
2009,05,04,11,50,14.30
2009,05,04,11,51,10.70
2009,05,04,11,52,15.20
2009,05,04,11,53,14.30
2009,05,04,11,54,9.10
2009,05,04,11,55,9.20
2009,05,04,11,56,16.80
2009,05,04,11,57,11.10
2009,05,04,11,58,13.40
2009,05,04,11,59,10.80
2009,05,04,12,00,16.70
2009,05,04,12,01,8.70
2009,05,04,12,02,9.00
2009,05,04,12,03,12.60
2009,05,04,12,04,6.80
2009,05,04,12,05,9.40
2009,05,04,12,06,13.00
2009,05,04,12,07,10.70
2009,05,04,12,08,10.50
2009,05,04,12,09,10.20
2009,05,04,12,10,8.10
2009,05,04,12,11,15.10
2009,05,04,12,12,11.50
2009,05,04,12,13,9.50
2009,05,04,12,14,15.40
2009,05,04,12,15,12.90
2009,05,04,12,16,14.90
2009,05,04,12,17,13.00
2009,05,04,12,18,14.10
2009,05,04,12,19,12.70
2009,05,04,12,20,16.60
2009,05,04,12,21,20.40
2009,05,04,12,22,13.70
2009,05,04,12,23,13.70
2009,05,04,12,24,18.80
2009,05,04,12,25,13.90
2009,05,04,12,26,13.70
2009,05,04,12,27,13.80
2009,05,04,12,28,14.30
2009,05,04,12,29,12.70
2009,05,04,12,30,18.50
2009,05,04,12,31,10.40
2009,05,04,12,32,16.30
2009,05,04,12,33,17.90
2009,05,04,12,34,21.30
2009,05,04,12,35,16.00
2009,05,04,12,36,16.30
2009,05,04,12,37,11.10
2009,05,04,12,38,15.90
2009,05,04,12,39,10.40
2009,05,04,12,40,12.30
2009,05,04,12,41,14.20
2009,05,04,12,42,14.50
2009,05,04,12,43,8.20
2009,05,04,12,44,12.70
2009,05,04,12,45,9.40
2009,05,04,12,46,14.20
2009,05,04,12,47,12.40
2009,05,04,12,48,10.90
2009,05,04,12,49,9.70
2009,05,04,12,50,17.10
2009,05,04,12,51,13.50
2009,05,04,12,52,7.60
2009,05,04,12,53,7.20
2009,05,04,12,54,8.10
2009,05,04,12,55,15.30
2009,05,04,12,56,9.70
2009,05,04,12,57,10.50
2009,05,04,12,58,15.90
2009,05,04,12,59,9.50
2009,05,04,13,00,13.60
2009,05,04,13,01,12.30
2009,05,04,13,02,13.80
2009,05,04,13,03,17.40
2009,05,04,13,04,20.20
2009,05,04,13,05,15.00
2009,05,04,13,06,11.20
2009,05,04,13,07,11.90
2009,05,04,13,08,13.20
2009,05,04,13,09,11.00
2009,05,04,13,10,10.20
2009,05,04,13,11,12.10
2009,05,04,13,12,15.90
2009,05,04,13,13,10.10
2009,05,04,13,14,13.70
2009,05,04,13,15,11.10
2009,05,04,13,16,11.60
2009,05,04,13,17,17.30
2009,05,04,13,18,13.00
2009,05,04,13,19,17.80
2009,05,04,13,20,8.10
2009,05,04,13,21,16.30
2009,05,04,13,22,14.10
2009,05,04,13,23,9.70
2009,05,04,13,24,9.50
2009,05,04,13,25,8.60
2009,05,04,13,26,11.70
2009,05,04,13,27,8.20
2009,05,04,13,28,14.20
2009,05,04,13,29,9.80
2009,05,04,13,30,11.90
2009,05,04,13,31,12.00
2009,05,04,13,32,7.70
2009,05,04,13,33,13.80
2009,05,04,13,34,11.00
2009,05,04,13,35,7.90
2009,05,04,13,36,6.80
2009,05,04,13,37,7.10
2009,05,04,13,38,9.70
2009,05,04,13,39,9.00
2009,05,04,13,40,5.30
2009,05,04,13,41,5.50
2009,05,04,13,42,9.30
2009,05,04,13,43,14.70
2009,05,04,13,44,7.70
2009,05,04,13,45,19.80
2009,05,04,13,46,13.50
2009,05,04,13,47,16.60
2009,05,04,13,48,12.70
2009,05,04,13,49,22.70
2009,05,04,13,50,16.70
2009,05,04,13,51,21.50
2009,05,04,13,52,20.30
2009,05,04,13,53,19.40
2009,05,04,13,54,18.40
2009,05,04,13,55,19.40
2009,05,04,13,56,14.00
2009,05,04,13,57,16.70
2009,05,04,13,58,16.00
2009,05,04,13,59,13.60
2009,05,04,14,00,15.70
2009,05,04,14,01,11.90
2009,05,04,14,02,12.40
2009,05,04,14,03,12.10
2009,05,04,14,04,16.00
2009,05,04,14,05,25.50
2009,05,04,14,06,15.40
2009,05,04,14,07,19.60
2009,05,04,14,08,18.00
2009,05,04,14,09,15.50
2009,05,04,14,10,20.40
2009,05,04,14,11,16.10
2009,05,04,14,12,14.60
2009,05,04,14,13,17.50
2009,05,04,14,14,15.20
2009,05,04,14,15,18.10
2009,05,04,14,16,22.10
2009,05,04,14,17,15.60
2009,05,04,14,18,17.20
2009,05,04,14,19,15.10
2009,05,04,14,20,21.60
2009,05,04,14,21,19.10
2009,05,04,14,22,8.90
2009,05,04,14,23,18.10
2009,05,04,14,24,20.70
2009,05,04,14,25,19.20
2009,05,04,14,26,17.80
2009,05,04,14,27,15.80
2009,05,04,14,28,18.70
2009,05,04,14,29,14.70
2009,05,04,14,30,9.80
2009,05,04,14,31,10.80
2009,05,04,14,32,12.10
2009,05,04,14,33,17.10
2009,05,04,14,34,18.80
2009,05,04,14,35,21.60
2009,05,04,14,36,13.00
2009,05,04,14,37,17.90
2009,05,04,14,38,20.40
2009,05,04,14,39,16.10
2009,05,04,14,40,18.20
2009,05,04,14,41,24.50
2009,05,04,14,42,13.90
2009,05,04,14,43,16.20
2009,05,04,14,44,11.80
2009,05,04,14,45,17.60
2009,05,04,14,46,21.40
2009,05,04,14,47,16.60
2009,05,04,14,48,21.30
2009,05,04,14,49,17.30
2009,05,04,14,50,13.00
2009,05,04,14,51,8.70
2009,05,04,14,52,9.50
2009,05,04,14,53,19.60
2009,05,04,14,54,18.40
2009,05,04,14,55,14.30
2009,05,04,14,56,15.00
2009,05,04,14,57,15.80
2009,05,04,14,58,12.60
2009,05,04,14,59,17.40
2009,05,04,15,00,13.00
2009,05,04,15,01,13.00
2009,05,04,15,02,13.20
2009,05,04,15,03,13.40
2009,05,04,15,04,15.60
2009,05,04,15,05,13.30
2009,05,04,15,06,12.50
2009,05,04,15,07,10.10
2009,05,04,15,08,12.20
2009,05,04,15,09,13.10
2009,05,04,15,10,13.20
2009,05,04,15,11,5.70
2009,05,04,15,12,10.40
2009,05,04,15,13,10.20
2009,05,04,15,14,9.30
2009,05,04,15,15,15.50
2009,05,04,15,16,16.90
2009,05,04,15,17,12.80
2009,05,04,15,18,6.50
2009,05,04,15,19,10.60
2009,05,04,15,20,11.10
2009,05,04,15,21,11.00
2009,05,04,15,22,9.50
2009,05,04,15,23,11.40
2009,05,04,15,24,7.90
2009,05,04,15,25,8.10
2009,05,04,15,26,7.90
2009,05,04,15,27,11.60
2009,05,04,15,28,11.40
2009,05,04,15,29,4.50
2009,05,04,15,30,7.70
2009,05,04,15,31,11.20
2009,05,04,15,32,5.90
2009,05,04,15,33,14.90
2009,05,04,15,34,13.50
2009,05,04,15,35,13.20
2009,05,04,15,36,8.70
2009,05,04,15,37,11.20
2009,05,04,15,38,8.10
2009,05,04,15,39,7.50
2009,05,04,15,40,8.10
2009,05,04,15,41,7.20
2009,05,04,15,42,11.20
2009,05,04,15,43,14.50
2009,05,04,15,44,12.40
2009,05,04,15,45,13.30
2009,05,04,15,46,4.40
2009,05,04,15,47,11.20
2009,05,04,15,48,11.60
2009,05,04,15,49,14.10
2009,05,04,15,50,10.60
2009,05,04,15,51,12.90
2009,05,04,15,52,11.60
2009,05,04,15,53,12.30
2009,05,04,15,54,11.70
2009,05,04,15,55,6.00
2009,05,04,15,56,8.50
2009,05,04,15,57,9.70
2009,05,04,15,58,16.70
2009,05,04,15,59,11.60
2009,05,04,16,00,11.40
2009,05,04,16,01,14.90
2009,05,04,16,02,8.00
2009,05,04,16,03,8.20
2009,05,04,16,04,7.50
2009,05,04,16,05,10.50
2009,05,04,16,06,12.50
2009,05,04,16,07,11.50
2009,05,04,16,08,9.30
2009,05,04,16,09,12.30
2009,05,04,16,10,8.50
2009,05,04,16,11,9.30
2009,05,04,16,12,7.10
2009,05,04,16,13,9.70
2009,05,04,16,14,13.10
2009,05,04,16,15,10.60
2009,05,04,16,16,4.40
2009,05,04,16,17,11.30
2009,05,04,16,18,11.00
2009,05,04,16,19,10.50
2009,05,04,16,20,12.00
2009,05,04,16,21,11.90
2009,05,04,16,22,11.30
2009,05,04,16,23,10.90
2009,05,04,16,24,7.30
2009,05,04,16,25,11.80
2009,05,04,16,26,6.50
2009,05,04,16,27,10.20
2009,05,04,16,28,16.30
2009,05,04,16,29,14.40
2009,05,04,16,30,8.40
2009,05,04,16,31,8.00
2009,05,04,16,32,9.40
2009,05,04,16,33,10.60
2009,05,04,16,34,8.10
2009,05,04,16,35,6.90
2009,05,04,16,36,11.80
2009,05,04,16,37,9.70
2009,05,04,16,38,8.30
2009,05,04,16,39,7.40
2009,05,04,16,40,9.30
2009,05,04,16,41,9.80
2009,05,04,16,42,12.60
2009,05,04,16,43,14.00
2009,05,04,16,44,12.80
2009,05,04,16,45,13.90
2009,05,04,16,46,8.70
2009,05,04,16,47,7.20
2009,05,04,16,48,12.70
2009,05,04,16,49,8.90
2009,05,04,16,50,12.60
2009,05,04,16,51,11.10
2009,05,04,16,52,11.90
2009,05,04,16,53,11.90
2009,05,04,16,54,15.10
2009,05,04,16,55,11.90
2009,05,04,16,56,10.60
2009,05,04,16,57,11.10
2009,05,04,16,58,7.60
2009,05,04,16,59,11.10
2009,05,04,17,00,9.50
2009,05,04,17,01,10.60
2009,05,04,17,02,15.70
2009,05,04,17,03,9.90
2009,05,04,17,04,15.00
2009,05,04,17,05,10.10
2009,05,04,17,06,12.60
2009,05,04,17,07,7.80
2009,05,04,17,08,16.00
2009,05,04,17,09,8.10
2009,05,04,17,10,10.90
2009,05,04,17,11,13.90
2009,05,04,17,12,13.90
2009,05,04,17,13,9.10
2009,05,04,17,14,11.90
2009,05,04,17,15,13.10
2009,05,04,17,16,9.40
2009,05,04,17,17,9.80
2009,05,04,17,18,14.10
2009,05,04,17,19,12.20
2009,05,04,17,20,14.10
2009,05,04,17,21,14.20
2009,05,04,17,22,18.30
2009,05,04,17,23,9.70
2009,05,04,17,24,10.90
2009,05,04,17,25,12.70
2009,05,04,17,26,10.60
2009,05,04,17,27,8.80
2009,05,04,17,28,8.00
2009,05,04,17,29,15.70
2009,05,04,17,30,14.60
2009,05,04,17,31,9.10
2009,05,04,17,32,16.90
2009,05,04,17,33,11.60
2009,05,04,17,34,11.50
2009,05,04,17,35,13.10
2009,05,04,17,36,12.70
2009,05,04,17,37,9.40
2009,05,04,17,38,8.70
2009,05,04,17,39,14.40
2009,05,04,17,40,18.50
2009,05,04,17,41,17.10
2009,05,04,17,42,16.60
2009,05,04,17,43,18.00
2009,05,04,17,44,16.20